User: anonymous   Login
Location: Heilwood
(40.6210°N, 78.9150°W)
Time: 01:22:39
(UTC-04:00)
Language:

BREEZE-M DEB (TANK) - Orbit

View from above orbital plane
View from above orbital plane
View from above satellite
View from above satellite

Ground track
Ground track

The orbit data is extracted from the following two-line orbital elements,

1 29649U 06056B   17112.72763822 +.00001906 +00000-0 +50205-3 0  9997
2 29649 049.4886 274.2362 5368918 126.7623 295.5188 04.99443922185013
Epoch (UTC): 22 April 2017 17:27:47
Eccentricity: 0.5368918
inclination: 49.4886°
perigee height: 317 km
apogee height: 15840 km
right ascension of ascending node: 274.2362°
argument of perigee: 126.7623°
revolutions per day: 4.99443922
mean anomaly at epoch: 295.5188°
orbit number at epoch: 18501

The dashed part of the orbit path shows where the satellite is in the earth's shadow,  

DLR